Location: Unspecified
(0.0000°N, 0.0000°E)
Time: 00:01:07
(UTC+00:00)

Explorer 11/Cluster Stage 4 - All Passes

Search period start: 16 September 2019 00:00
Search period end: 26 September 2019 00:00
Orbit: 467 x 1260 km, 28.8° (Epoch: 15 September)

Date Brightness Start Highest point End Pass type
(mag) Time Alt. Az. Time Alt. Az. Time Alt. Az.
16 Sep - 07:12:00 10° NW 07:16:20 45° NNE 07:21:43 10° ESE daylight
16 Sep - 09:00:06 10° W 09:05:03 38° SSW 09:11:09 10° SE daylight
16 Sep - 10:51:50 10° SW 10:54:55 13° SSW 10:58:16 10° S daylight
16 Sep - 16:25:43 10° S 16:29:21 13° SSE 16:32:51 10° SE daylight
16 Sep - 18:12:41 10° SW 18:19:40 35° SSE 18:25:39 10° E visible
16 Sep - 20:01:51 10° WSW 20:08:58 70° NNW 20:14:36 10° NE visible
16 Sep - 21:54:13 10° WNW 21:57:30 15° NNW 22:00:28 10° N visible
17 Sep - 07:01:28 10° NW 07:05:44 56° NNE 07:11:04 10° ESE daylight
17 Sep - 08:49:58 10° W 08:54:30 31° SSW 09:00:02 10° SE daylight
17 Sep - 10:42:59 10° SSW 10:44:29 11° SSW 10:46:02 10° S daylight
17 Sep - 16:14:14 10° SSW 16:18:49 16° SSE 16:23:13 10° SE daylight
17 Sep - 18:01:34 10° SW 18:09:01 42° SSE 18:15:23 10° E daylight
17 Sep - 19:51:03 10° WSW 19:58:15 59° NNW 20:04:03 10° NE visible
17 Sep - 21:44:10 10° WNW 21:46:55 13° NNW 21:49:27 10° N visible
18 Sep - 05:06:29 10° NNE 05:07:02 10° NNE 05:07:34 10° NE visible
18 Sep - 06:51:01 10° NW 06:55:11 73° NNE 07:00:22 10° ESE daylight
18 Sep - 08:39:57 10° WSW 08:44:01 24° SSW 08:48:49 10° SSE daylight
18 Sep - 16:02:52 10° SSW 16:08:13 18° SSE 16:13:22 10° ESE daylight
18 Sep - 17:50:30 10° SW 17:58:18 50° SSE 18:05:03 10° ENE daylight
18 Sep - 19:40:19 10° WSW 19:47:31 50° NNW 19:53:25 10° NE visible
18 Sep - 21:34:20 10° NW 21:36:21 12° NNW 21:38:14 10° N visible
19 Sep - 04:54:46 10° N 04:56:32 13° NNE 04:58:21 10° ENE visible
19 Sep - 06:40:36 10° WNW 06:44:39 87° SSW 06:49:38 10° ESE daylight
19 Sep - 08:30:06 10° WSW 08:33:33 19° SSW 08:37:32 10° SSE daylight
19 Sep - 15:51:39 10° SSW 15:57:35 21° SSE 16:03:22 10° ESE daylight
19 Sep - 17:39:30 10° SW 17:47:33 60° SSE 17:54:37 10° ENE daylight
19 Sep - 19:29:37 10° W 19:36:47 42° NNW 19:42:46 10° NE visible
19 Sep - 21:25:16 10° NW 21:25:47 10° NNW 21:26:18 10° NNW visible
20 Sep - 04:43:41 10° N 04:46:01 16° NNE 04:48:29 10° ENE visible
20 Sep - 06:30:15 10° WNW 06:34:08 65° SSW 06:38:51 10° SE daylight
20 Sep - 08:20:28 10° SW 08:23:07 15° SSW 08:26:04 10° SSE daylight
20 Sep - 15:40:30 10° SSW 15:46:56 25° SSE 15:53:13 10° ESE daylight
20 Sep - 17:28:33 10° SW 17:36:47 70° SSE 17:44:06 10° ENE daylight
20 Sep - 19:18:59 10° W 19:26:02 37° NNW 19:32:02 10° NNE visible
21 Sep - 04:32:47 10° NNW 04:35:31 20° NNE 04:38:26 10° E visible
21 Sep - 06:19:58 10° WNW 06:23:40 47° SSW 06:28:02 10° SE daylight
21 Sep - 08:11:28 10° SW 08:12:43 11° SSW 08:14:02 10° S daylight
21 Sep - 15:29:25 10° SSW 15:36:13 29° SSE 15:42:58 10° E daylight
21 Sep - 17:17:39 10° SW 17:25:59 81° SSE 17:33:31 10° ENE daylight
21 Sep - 19:08:25 10° W 19:15:17 32° NNW 19:21:16 10° NNE visible
22 Sep - 04:21:58 10° NNW 04:25:02 26° NNE 04:28:15 10° E visible
22 Sep - 06:09:45 10° W 06:13:12 34° SSW 06:17:10 10° SE daylight
22 Sep - 13:33:09 10° S 13:35:15 11° SSE 13:37:23 10° SE daylight
22 Sep - 15:18:23 10° SSW 15:25:29 33° SSE 15:32:38 10° E daylight
22 Sep - 17:06:48 10° WSW 17:15:09 87° NNW 17:22:52 10° ENE daylight
22 Sep - 18:57:56 10° W 19:04:32 28° NNW 19:10:26 10° NNE visible
23 Sep - 04:11:15 10° NW 04:14:34 35° NNE 04:17:59 10° E visible
23 Sep - 05:59:38 10° W 06:02:46 25° SSW 06:06:14 10° SSE daylight
23 Sep - 13:21:39 10° S 13:24:42 13° SSE 13:27:51 10° SE daylight
23 Sep - 15:07:26 10° SW 15:14:43 38° SSE 15:22:11 10° E daylight
23 Sep - 16:56:02 10° WSW 17:04:19 76° NNW 17:12:10 10° NE daylight
23 Sep - 18:47:31 10° W 18:53:48 25° NNW 18:59:32 10° NNE visible
24 Sep - 04:00:35 10° NW 04:04:06 48° NNE 04:07:39 10° ESE visible
24 Sep - 05:49:39 10° WSW 05:52:20 19° SSW 05:55:13 10° SSE daylight
24 Sep - 13:10:24 10° S 13:14:07 14° SSE 13:18:00 10° SE daylight
24 Sep - 14:56:32 10° SW 15:03:55 44° SSE 15:11:40 10° E daylight
24 Sep - 16:45:19 10° WSW 16:53:28 66° NNW 17:01:23 10° NE daylight
24 Sep - 18:37:12 10° WNW 18:43:06 22° NNW 18:48:35 10° NNE visible
25 Sep - 02:04:53 10° NNE 02:05:08 10° NNE 02:05:25 10° NNE night (unlit)
25 Sep - 03:49:57 10° NW 03:53:39 69° NNE 03:57:15 10° ESE visible
25 Sep - 05:39:52 10° WSW 05:41:55 14° SSW 05:44:02 10° S daylight
25 Sep - 12:59:18 10° S 13:03:30 16° SSE 13:07:59 10° ESE daylight
25 Sep - 14:45:41 10° SW 14:53:06 51° SSE 15:01:04 10° ENE daylight
25 Sep - 16:34:40 10° WSW 16:42:39 56° NNW 16:50:33 10° NE daylight
25 Sep - 18:26:59 10° WNW 18:32:25 19° NNW 18:37:34 10° NNE visible
